sat.trackr.live / text

‹ back to catalog

STARLINK-3246

NORAD 49732 · 2021-115J

PAYLOAD ACTIVE UNKNOWN

§ Identity

Operator
Country
US
Launch date
2021-12-02
Launch site
AFETR
Launch vehicle
Mass (kg)
RCS (m²)

Purposes: comms

External: N2YO · Heavens-Above · Gunter

§ Orbital elements

Epoch: 2026-09-15T14:54:21.007008Z

Period
94.01 min
Inclination
53.1627°
Eccentricity
0.0001292
Mean motion
15.31705215 rev/d
Perigee alt
469.8 km
Apogee alt
471.6 km
Semi-major
6,848.9 km
B*
1.3600e-5
RAAN
14.5270°
Arg perigee
92.2243°
Mean anomaly
267.8906°
Rev number
26,422

§ Raw data

STARLINK-32461 49732U 21115J   26258.62107647  .00000057  00000+0  13600-4 0  99962 49732  53.1627  14.5270 0001292  92.2243 267.8906 15.31705215264220

JSON: /api/v1/satellites/49732 · /tle

For live sub-satellite position, see the globe view (requires WebGL).

§ Visibility from observer

Set your observer location to see the next 7 days of passes ≥ 10°. The values pass through the URL so the page stays shareable.

No JS? Fill the form by hand. The geolocation button needs JavaScript.